Probability
0 0 0 1 0 0 1 2 2 2 1 0 0 0 0 0 0 0 0 1 2 3 2 1 0 0 0 0 0 0 0 0 0 0 0 0 0 0 1 0 0 0 0
0 0 0 1 0 0 1 2 2 1 0 0 0 0 0 0 0 0 0 0 1 1 1 0 0 0 0 0 0 0 0 0 0 0 0 0 0 0 1 0 0 0 0
0 0 0 0 0 0 2 3 2 1 0 0 0 0 0 0 0 0 0 0 0 0 0 0 0 0 0 0 0 0 0 0 0 0 0 0 0 0 0 0 0 0 0
0 0 0 0 0 0 1 2 2 1 0 0 0 0 0 0 0 0 0 0 0 0 0 0 0 0 0 0 0 0 0 0 0 0 0 0 0 0 0 0 0 0 0
0 0 0 0 0 0 0 1 1 0 1 1 1 1 0 0 0 0 0 0 0 0 0 0 0 0 0 0 0 0 0 0 0 0 0 0 0 0 0 0 0 0 0
0 0 0 0 0 0 0 0 1 1 2 2 2 2 1 0 0 0 0 1 1 0 0 0 0 0 0 0 0 0 0 0 0 0 0 0 0 0 0 0 0 0 0
0 0 0 0 0 0 0 1 2 3 3 3 3 3 2 1 1 0 1 2 1 0 0 1 2 1 0 0 0 0 0 0 0 0 0 0 0 0 0 0 0 0 0
0 0 0 0 0 0 0 2 4 4 3 4 3 3 3 2 1 0 1 1 1 0 1 2 3 2 0 0 0 0 0 0 0 0 0 0 0 0 0 1 1 1 1
0 0 1 0 0 0 0 2 4 5 5 5 4 4 3 2 1 1 1 2 1 1 2 3 2 1 0 0 0 0 0 0 0 0 0 0 0 0 1 2 2 2 2
0 0 0 0 0 0 0 2 4 6 7 6 6 5 3 1 1 2 3 4 4 3 3 3 1 0 0 0 0 0 1 1 0 0 0 0 0 0 1 2 3 2 1
0 0 0 0 0 1 1 2 4 5 5 5 5 4 2 1 1 2 4 6 6 5 3 2 1 0 0 0 1 1 1 1 0 0 0 0 0 1 1 2 2 1 0
0 0 0 0 0 0 0 1 1 2 2 2 2 1 1 0 0 1 3 4 5 4 3 2 1 1 1 1 2 2 1 0 0 0 0 0 0 0 1 2 3 2 1
0 0 0 0 0 0 0 0 0 0 0 0 0 0 0 0 0 0 1 2 2 3 3 3 3 2 2 2 2 1 1 0 0 0 0 0 0 0 1 3 4 3 2
0 1 2 2 1 0 0 0 0 0 0 0 0 0 0 0 0 0 0 0 1 2 2 2 2 2 2 2 1 0 0 0 0 0 0 0 0 1 2 4 5 5 5
1 2 3 4 3 1 1 0 0 0 0 0 0 0 0 0 0 0 0 0 0 1 1 1 1 1 1 1 0 0 0 0 0 0 0 0 0 1 2 4 5 6 6
1 3 4 5 4 3 2 1 0 0 0 0 0 0 0 0 0 0 0 0 0 0 0 0 0 0 0 1 1 1 1 1 1 0 0 0 0 1 2 2 3 4 4
2 4 6 7 5 4 3 2 1 0 0 0 0 0 0 0 0 0 0 0 0 0 0 0 0 1 1 2 2 2 2 2 2 1 0 0 0 1 1 1 1 1 1
4 6 8 8 6 4 3 3 1 0 0 0 0 0 0 0 0 0 0 0 0 0 1 1 1 2 3 3 3 3 3 3 2 1 0 0 0 0 0 0 0 0 0
7 9 10 8 6 5 4 3 2 0 0 0 0 0 0 0 0 0 0 0 0 1 2 2 3 3 3 3 3 3 3 1 1 0 0 1 0 0 0 0 0 0 0
11 12 11 9 8 7 6 4 2 1 0 0 1 1 0 0 0 0 0 0 0 1 2 3 3 3 3 3 3 3 2 1 0 0 0 0 0 0 0 0 0 0 0
15 15 14 12 12 11 9 6 3 2 1 1 2 2 1 1 1 0 0 0 0 1 2 3 2 2 2 3 3 3 2 0 0 0 0 0 0 0 0 0 0 0 0
17 17 16 15 14 14 11 7 5 4 2 2 4 3 2 2 2 1 0 0 0 1 2 1 1 1 2 2 2 2 2 1 0 0 0 0 0 0 0 0 0 0 0
18 18 17 16 14 12 9 7 5 4 3 2 3 3 2 3 3 2 1 1 2 2 2 1 1 1 2 2 1 1 2 1 0 0 0 0 0 0 0 0 0 0 0
19 19 17 15 12 9 7 6 4 3 3 3 3 2 2 4 5 4 3 3 3 3 3 2 2 3 3 2 1 0 1 1 0 0 0 0 0 0 0 0 0 0 0
20 20 18 14 11 9 7 5 4 3 3 5 5 4 2 3 5 5 4 3 4 3 3 3 3 3 3 1 0 0 0 0 0 0 0 0 0 0 0 0 0 0 0
21 21 19 16 13 10 7 5 4 3 4 5 6 5 3 4 6 6 4 3 3 3 3 3 3 3 2 1 0 0 0 0 0 0 0 0 0 0 0 0 0 0 0
Wind_Speed
1 1 6 8 10 10 11 11 11 12 11 11 11 11 11 12 12 13 13 13 14 14 14 14 14 15 15 16 16 16 15 15 15 15 15 15 14 14 14 14 14 10 15
4 3 8 9 9 10 10 11 11 11 11 11 12 12 12 12 13 13 13 13 13 14 14 14 15 14 15 15 15 15 14 15 15 15 15 14 14 14 13 13 13 9 15
6 5 7 9 9 10 10 10 11 11 11 11 12 12 12 12 13 13 13 13 14 14 14 14 14 14 14 14 14 13 14 13 14 14 12 7 9 13 13 14 14 14 14
7 5 6 9 10 10 10 10 10 11 11 11 12 12 12 12 12 13 13 13 14 14 14 14 14 14 13 12 12 12 12 12 12 12 6 5 6 12 13 13 13 13 13
6 4 6 10 10 10 9 9 10 11 11 11 12 12 12 12 12 13 13 13 14 14 14 14 13 13 12 11 11 12 11 11 11 8 5 4 4 10 12 12 13 13 13
5 4 6 10 10 9 9 9 10 11 11 11 12 11 11 12 12 13 13 13 13 13 13 13 12 12 11 11 11 11 10 10 8 5 5 4 4 10 12 12 13 12 12
6 4 5 9 9 9 9 10 11 11 11 11 12 11 11 12 12 13 12 12 12 12 12 12 11 10 10 10 10 9 8 9 6 5 4 4 5 10 12 12 12 12 12
7 5 5 9 10 9 10 10 11 10 10 11 12 12 12 12 12 12 12 12 12 11 11 10 10 9 8 8 7 7 7 7 7 6 4 4 7 10 11 12 12 12 11
6 6 4 4 6 9 9 9 11 10 11 11 11 12 12 12 12 11 11 11 11 10 10 9 9 8 6 6 6 6 6 7 5 4 5 4 8 10 12 12 12 11 11
6 5 4 4 3 3 4 9 11 11 11 11 10 11 12 12 11 11 10 10 10 9 9 9 8 7 5 4 5 5 6 6 4 3 3 4 9 10 11 12 11 11 11
6 4 4 3 3 3 3 6 8 9 10 9 8 10 9 5 5 6 8 9 9 9 8 7 7 6 4 4 3 4 4 3 3 2 2 7 9 10 11 11 11 11 10
6 5 4 4 3 3 3 3 2 3 3 3 3 4 3 3 3 5 6 8 9 8 7 6 6 4 3 2 2 2 2 3 3 2 3 8 9 10 11 11 11 10 10
7 6 5 5 4 4 2 3 2 2 2 2 3 3 3 3 2 2 2 3 4 4 3 3 2 1 2 2 2 2 3 3 2 3 4 9 9 10 11 11 11 10 9
7 6 6 5 4 4 3 3 3 2 2 2 2 3 3 2 2 2 2 2 2 1 2 2 1 2 2 2 2 3 3 3 2 2 4 9 9 9 10 10 10 9 9
7 6 6 5 5 4 3 2 3 2 2 2 2 2 3 3 3 2 2 2 2 2 2 2 2 2 3 3 3 3 3 4 4 3 3 8 8 8 8 9 9 9 9
7 7 6 5 5 5 4 3 3 3 3 2 2 3 3 3 3 3 3 2 2 2 2 2 3 3 2 3 3 3 4 4 3 4 3 4 6 6 7 7 7 8 8
8 7 7 6 5 5 4 4 3 3 3 2 2 2 3 3 3 3 2 2 1 1 2 2 2 2 3 3 3 3 3 3 4 4 4 2 2 4 5 6 6 6 6
8 7 7 7 6 5 4 3 3 3 3 2 2 2 3 3 3 3 3 2 1 1 2 2 2 3 2 3 2 2 2 2 3 4 3 3 2 2 3 5 4 4 5
9 8 6 6 6 5 4 3 3 3 2 2 2 2 2 3 3 3 2 1 1 2 2 2 2 3 3 3 2 2 2 2 2 3 3 3 2 2 1 2 3 3 3
8 8 7 6 5 4 3 3 3 2 2 2 2 2 3 2 2 2 2 2 2 2 2 2 3 3 3 3 3 3 2 2 2 2 3 2 2 3 2 2 1 1 2
8 8 7 6 5 4 3 3 2 2 1 1 1 2 3 2 2 2 2 2 2 2 2 3 3 3 2 3 4 3 3 3 2 1 2 2 2 2 2 2 1 1 0
8 8 7 7 6 5 3 3 3 3 2 2 1 2 3 3 3 3 3 2 2 2 2 3 3 3 1 2 3 3 2 2 2 2 1 2 2 2 2 2 2 1 1
9 9 8 7 7 6 5 3 2 2 2 1 1 1 1 2 2 2 3 2 2 3 3 3 3 4 2 1 1 3 3 2 0 2 1 1 2 1 1 1 2 1 1
9 8 7 7 7 6 5 5 4 4 2 2 2 1 1 2 2 2 2 2 2 2 2 2 2 2 3 2 1 1 2 4 3 1 1 1 1 1 1 2 1 1 1
10 8 7 7 6 6 5 6 4 3 3 2 2 2 1 1 1 2 2 2 2 2 2 2 2 2 2 2 1 1 1 1 2 3 1 1 1 0 1 2 1 1 1
9 8 7 7 6 6 6 5 5 5 4 4 3 3 1 1 1 1 2 2 2 2 2 2 2 2 2 2 1 2 2 2 2 2 2 2 1 1 0 1 1 1 1
Wind_Direction
172 159 112 107 103 100 100 100 102 105 107 107 106 106 106 106 109 110 113 115 115 115 115 117 117 116 116 118 119 120 120 121 122 124 124 124 124 124 124 123 120 118 120
165 154 124 112 109 104 100 101 103 106 108 109 109 110 109 109 110 112 113 116 115 115 115 117 119 119 119 119 120 121 121 122 122 122 122 123 123 122 123 126 125 126 127
141 140 128 118 114 109 106 105 109 109 110 110 110 112 115 115 115 115 115 115 116 116 116 117 119 119 119 120 121 121 121 121 122 121 120 115 122 124 125 128 129 129 130
135 134 124 121 116 113 111 111 113 115 114 113 114 116 119 121 120 118 118 117 117 117 117 118 119 120 121 123 123 123 123 123 123 125 121 122 126 130 132 132 132 133 133
126 126 129 120 119 117 117 117 118 120 119 118 117 118 121 124 121 118 119 119 119 119 120 120 120 121 122 125 126 128 128 128 128 126 122 121 127 136 137 138 137 137 136
125 127 130 122 121 120 122 123 122 121 123 122 122 122 123 124 123 121 122 122 121 121 122 123 123 124 124 126 129 132 133 129 124 118 120 129 135 143 142 142 140 139 139
130 128 128 127 124 123 123 125 124 122 122 123 127 128 125 125 125 124 124 124 124 124 125 126 127 127 127 126 127 130 132 127 119 117 127 136 145 147 146 147 146 145 144
137 133 131 134 130 125 124 126 128 124 123 122 126 130 127 127 126 126 127 128 127 128 129 130 130 131 132 130 129 128 126 127 124 131 140 146 155 155 153 151 150 150 151
132 128 125 133 132 131 127 129 133 128 127 125 125 129 130 131 131 130 130 132 133 135 137 136 137 139 139 136 133 129 124 124 119 130 146 148 157 161 160 157 156 156 155
127 126 126 124 121 122 122 126 130 127 128 130 131 132 135 136 136 135 136 138 139 141 143 144 145 148 149 148 144 135 125 121 118 126 142 159 161 163 162 160 162 161 161
128 129 137 137 135 132 128 131 128 129 130 131 135 141 137 130 133 137 145 147 147 148 149 151 155 159 162 160 155 140 128 120 120 138 145 157 160 162 163 165 167 167 169
139 150 150 151 151 148 147 125 116 122 115 114 118 132 130 133 142 145 150 151 151 151 153 158 159 161 155 128 123 117 110 122 130 144 157 161 162 164 165 169 168 171 175
148 144 143 148 148 141 127 128 125 118 114 114 119 125 126 123 130 134 134 144 143 146 144 144 148 138 134 135 134 126 125 126 146 154 164 169 167 167 170 172 172 174 177
139 144 144 144 133 127 123 129 132 130 127 128 127 129 125 121 122 130 133 137 133 131 135 140 137 140 141 140 137 132 136 143 148 146 166 168 170 171 171 171 173 175 178
143 143 144 141 134 130 127 135 135 139 134 133 128 131 130 129 133 135 137 135 142 139 143 148 147 147 146 136 130 131 127 134 143 144 156 165 165 168 170 173 174 174 177
147 146 140 133 133 126 122 122 125 129 127 119 127 133 132 133 136 132 132 136 148 156 156 155 154 142 137 128 125 127 126 129 130 135 135 152 156 164 171 171 173 177 183
149 150 148 145 136 127 124 124 121 125 127 126 130 125 129 137 139 131 128 131 151 150 135 122 114 113 119 116 117 118 119 125 132 135 137 136 144 152 166 169 170 181 188
148 149 154 148 135 129 126 125 121 126 128 135 131 125 129 137 136 127 127 140 152 129 122 121 114 107 104 103 99 100 108 118 131 137 140 145 147 156 168 164 168 178 188
152 151 149 140 143 139 129 124 118 118 123 130 127 127 122 128 133 131 140 146 122 109 116 133 115 122 118 108 102 91 89 102 113 130 131 143 150 151 141 147 151 154 171
148 149 150 147 150 141 121 105 96 94 107 123 130 138 134 133 131 128 133 127 115 110 105 109 118 115 124 123 103 83 69 72 92 117 139 135 137 134 122 109 98 100 113
148 150 153 152 156 144 129 128 128 138 139 133 149 144 146 143 132 130 135 136 136 130 133 126 121 109 102 113 96 68 43 46 69 96 115 121 135 142 129 116 100 81 54
162 161 159 160 163 162 157 154 156 154 159 159 156 145 160 157 158 152 146 146 136 130 126 122 123 120 126 134 120 107 61 15 14 43 76 116 125 118 128 138 122 119 80
169 171 169 169 168 168 159 137 118 91 73 83 119 159 178 160 153 145 146 142 138 141 151 151 142 138 151 191 154 141 148 187 289 358 27 89 119 126 138 131 135 143 136
175 175 171 170 168 170 159 149 149 151 157 182 174 175 165 150 154 148 138 142 140 139 149 165 151 151 149 179 231 150 149 150 149 145 346 355 102 130 154 150 150 151 149
170 172 175 168 171 172 163 156 152 151 163 159 141 145 154 136 138 135 136 139 137 140 154 146 137 146 155 165 177 145 101 91 123 142 179 276 356 316 168 164 154 156 163
166 165 166 165 173 171 162 159 159 160 158 149 155 160 172 170 111 125 137 139 142 143 157 165 159 152 156 156 159 151 155 155 169 153 165 182 197 271 209 188 171 167 172